METAR AND TAF INFORMATION
METAR FOR EHLW
ADDS - METARS form results

(0026 UTC 21 September 2020)
Data provider http://aviationweather.gov/metar/data/
 
METAR text: EHLW 210025Z AUTO 07006KT 010V120 0300 DZ NCD 12/11 Q1019 RED
Conditions at: EHLW (LEEUWARDEN RNLAF, NL) observed 0025 UTC 21 September 2020
Temperature: 12.0°C (54°F)
Dewpoint: 11.0°C (52°F) [RH = 94%]
Pressure (altimeter): 30.09 inches Hg (1019.0 mb)
Winds: from the ENE (70 degrees) at 7 MPH (6 knots; 3.1 m/s)
Visibility: 0.19 miles (0.31 km)
Ceiling: at least 12,000 feet AGL
Clouds: sky clear below 12,000 feet AGL
Weather: DZ  (moderate drizzle)

METAR text: EHLW 202355Z AUTO 06007KT 010V100 0350 FG NCD 12/12 Q1019 RED
Conditions at: EHLW (LEEUWARDEN RNLAF, NL) observed 2355 UTC 20 September 2020
Temperature: 12.0°C (54°F)
Dewpoint: 12.0°C (54°F) [RH = 100%]
Pressure (altimeter): 30.09 inches Hg (1019.0 mb)
Winds: from the ENE (60 degrees) at 8 MPH (7 knots; 3.6 m/s)
Visibility: 0.22 miles (0.35 km)
Ceiling: at least 12,000 feet AGL
Clouds: sky clear below 12,000 feet AGL
Weather: FG  (fog)

METAR text: EHLW 202348Z AUTO 06006KT 010V100 0500 FG NCD 12/11 Q1019 RED
Conditions at: EHLW (LEEUWARDEN RNLAF, NL) observed 2348 UTC 20 September 2020
Temperature: 12.0°C (54°F)
Dewpoint: 11.0°C (52°F) [RH = 94%]
Pressure (altimeter): 30.09 inches Hg (1019.0 mb)
Winds: from the ENE (60 degrees) at 7 MPH (6 knots; 3.1 m/s)
Visibility: 0.31 miles (0.50 km)
Ceiling: at least 12,000 feet AGL
Clouds: sky clear below 12,000 feet AGL
Weather: FG  (fog)

METAR text: EHLW 202334Z AUTO 06006KT 010V110 1000 BR NCD 12/12 Q1019 AMB
Conditions at: EHLW (LEEUWARDEN RNLAF, NL) observed 2334 UTC 20 September 2020
Temperature: 12.0°C (54°F)
Dewpoint: 12.0°C (54°F) [RH = 100%]
Pressure (altimeter): 30.09 inches Hg (1019.0 mb)
Winds: from the ENE (60 degrees) at 7 MPH (6 knots; 3.1 m/s)
Visibility: 0.62 miles (1.00 km)
Ceiling: at least 12,000 feet AGL
Clouds: sky clear below 12,000 feet AGL
Weather: BR  (mist)

METAR text: EHLW 202330Z AUTO 06007KT 010V100 0600 FG NCD 12/12 Q1019 RED
Conditions at: EHLW (LEEUWARDEN RNLAF, NL) observed 2330 UTC 20 September 2020
Temperature: 12.0°C (54°F)
Dewpoint: 12.0°C (54°F) [RH = 100%]
Pressure (altimeter): 30.09 inches Hg (1019.0 mb)
Winds: from the ENE (60 degrees) at 8 MPH (7 knots; 3.6 m/s)
Visibility: 0.37 miles (0.60 km)
Ceiling: at least 12,000 feet AGL
Clouds: sky clear below 12,000 feet AGL
Weather: FG  (fog)

METAR text: EHLW 202329Z AUTO 06007KT 010V100 1100 -DZ NCD 12/11 Q1019 AMB
Conditions at: EHLW (LEEUWARDEN RNLAF, NL) observed 2329 UTC 20 September 2020
Temperature: 12.0°C (54°F)
Dewpoint: 11.0°C (52°F) [RH = 94%]
Pressure (altimeter): 30.09 inches Hg (1019.0 mb)
Winds: from the ENE (60 degrees) at 8 MPH (7 knots; 3.6 m/s)
Visibility: 0.68 miles (1.09 km)
Ceiling: at least 12,000 feet AGL
Clouds: sky clear below 12,000 feet AGL
Weather: -DZ  (light drizzle)

Forecast for: COR
Text: TAF COR EHLW 202013Z 2021/2109 05006KT CAVOK
Forecast period: 2100 to 2300 UTC 20 September 2020
Forecast type: FROM: standard forecast or significant change
Winds: from the NE (50 degrees) at 7 MPH (6 knots; 3.1 m/s)
Visibility: 6 or more miles (10+ km)
Ceiling: unknown
Clouds: missing
Weather: NSW  (no significant weather)
Text: BECMG 2023/2102 4000 BR
Forecast period: 2300 UTC 20 September 2020 to 0700 UTC 21 September 2020
Forecast type: BECOMING: Conditions expected to become as follows by 0200 UTC 21 September 2020
Winds: from the NE (50 degrees) at 7 MPH (6 knots; 3.1 m/s)
Visibility: 2.49 miles (4.01 km)
Ceiling: unknown
Clouds: missing
Weather: BR  (mist)
Text: PROB40 2101/2105 1500 BR MIFG
Forecast period: 0100 to 0500 UTC 21 September 2020
Forecast type: PROBABLE: 40 percent likelihood of the following during this time
Visibility: 0.93 miles (1.50 km)
Ceiling: unknown
Clouds: missing
Weather: BR MIFG  (mist, shallow fog)
Text: BECMG 2107/2109 9999 NSW
Forecast period: 0700 to 0900 UTC 21 September 2020
Forecast type: BECOMING: Conditions expected to become as follows by 0900 UTC 21 September 2020
Winds: from the NE (50 degrees) at 7 MPH (6 knots; 3.1 m/s)
Visibility: 6 or more miles (10+ km)
Ceiling: unknown
Clouds: missing
Weather: NSW  (no significant weather)

 AIRPORT MAP

 RUNWAY INFORMATION
Runway 06 Runway length 9701 ft Runway width 164 ft
Runway elevation 4 ft Runway displaced threshold 847 ft Runway heading 55
Runway 24 Runway length 9701 ft Runway width 164 ft
Runway elevation 4 ft Runway displaced threshold 1053 ft Runway heading 235
Runway 09 Runway length 6559 ft Runway width 164 ft
Runway elevation 3 ft Runway displaced threshold 195 ft Runway heading 91
Runway 27 Runway length 6559 ft Runway width 164 ft
Runway elevation 4 ft Runway displaced threshold 0 ft Runway heading 271

 AIRPORT FREQUENCIES
Type APP Name RAPCON NOR Frequency 122.1 MHZ
Type DIR Name ARRIVAL Frequency 122.1 MHZ
Type GND Name GND Frequency 28.155 MHZ
Type TWR Name TWR Frequency 120.7 MHZ

 AIRPORT NEAR NAVIGATION AIDS
Type TACAN Name Leeuwarden Frequency 114700 KHZ